[[{"header":{"parameterUnit":"m.s-1","parameterCategory":1,"la1":30.2991,"la2":30.254,"lo1":-89.0895,"lo2":-89.0444,"dy":0.0017,"dx":0.0017,"nx":28,"ny":28,"refTime":"2023-09-01T09:00:00:Z","depth":0,"parameterNumber":2,"parameterNumberName":"U-component_of_WINDS"},"data":[0,0,0,0,0,0,0,0,0,0,0,0,0,0,0,0,0,0,0,0,0,0,0,0,0,0,0,0,0,0,0,0,0,0,0,0,0,0,0,0,0,0,0,0,0,0,0,0,0,0,0,0,0,0,0,0,0,0,-2.0952,-2.0953,0,-2.0983,-2.0983,-2.0984,-2.0939,-2.0938,-2.0936,-2.0935,-2.0965,-2.0968,-2.097,0,0,0,0,0,0,0,0,0,0,0,0,0,-2.0853,-2.0855,-2.0952,-2.0953,-2.0953,-2.0983,-2.0983,-2.0984,-2.094,-2.0938,-2.0936,-2.0934,-2.0965,-2.0967,-2.097,0,0,0,0,0,0,0,0,0,0,0,0,0,-2.0891,-2.0856,-2.0952,-2.0935,-2.0933,-2.0983,-2.0983,-2.0984,-2.094,-2.0938,-2.0935,-2.0933,-2.0964,-2.0967,-2.0971,-2.1038,0,0,-2.0981,-2.0982,0,0,0,0,0,0,0,0,-2.0889,-2.0895,-2.0937,-2.0936,-2.0935,-2.0955,-2.096,-2.1002,-2.0941,-2.0938,-2.0935,-2.0932,-2.0964,-2.0967,-2.0978,-2.104,-2.1041,-2.0981,-2.0983,-2.0985,-2.0986,0,0,0,0,0,0,0,-2.0886,-2.0893,-2.0964,-2.0937,-2.0936,-2.0924,-2.0927,-2.0967,-2.0963,-2.0938,-2.0934,-2.0939,-2.0963,-2.0975,-2.0978,-2.1042,-2.0981,-2.0984,-2.0986,-2.0988,-2.1158,-2.116,0,0,0,0,0,0,-2.0886,-2.0891,-2.0963,-2.0965,-2.0906,-2.0928,-2.0931,-2.0951,-2.0963,-2.0962,-2.0941,-2.0937,-2.097,-2.0974,-2.0979,-2.1058,-2.0985,-2.0988,-2.099,-2.1156,-2.1159,-2.1161,0,0,0,0,0,0,-2.0884,-2.0893,-2.0962,-2.0927,-2.0935,-2.0932,-2.0955,-2.0953,-2.0965,-2.0965,-2.0964,-2.0954,-2.0968,-2.0974,-2.1023,-2.1058,-2.0989,-2.0993,-2.1153,-2.1157,-2.116,-2.1216,0,0,0,0,0,0,-2.0881,-2.0893,-2.0919,-2.0928,-2.0937,-2.1007,-2.0957,-2.0955,-2.0971,-2.0966,-2.0977,-2.0977,-2.0967,-2.1019,-2.1027,-2.1062,-2.0995,-2.115,-2.1154,-2.1159,-2.1211,-2.1221,-2.123,0,0,0,0,0,-2.0878,-2.0934,-2.0921,-2.093,-2.0971,-2.1009,-2.1014,-2.1002,-2.0974,-2.1,-2.1,-2.0977,-2.1053,-2.1024,-2.1033,-2.1069,-2.1147,-2.1153,-2.1158,-2.1207,-2.1219,-2.123,0,0,0,0,0,0,-2.0929,-2.0935,-2.092,-2.0981,-2.0995,-2.1001,-2.1034,-2.1016,-2.1037,-2.1032,-2.1015,-2.1018,-2.107,-2.1075,-2.1042,-2.1134,-2.1095,-2.1103,-2.1129,-2.1141,-2.115,-2.1148,-2.0998,0,0,0,0,0,-2.0947,-2.0979,-2.0982,-2.1035,-2.1043,-2.1037,-2.1054,-2.1043,-2.1056,-2.1062,-2.1065,-2.1079,-2.1106,-2.1124,-2.1149,-2.1212,-2.1213,-2.1241,-2.125,-2.1258,-2.1265,-2.1296,-2.1308,-2.118,-2.118,-2.1179,0,0,-2.0986,-2.0993,-2.1013,-2.1046,-2.1055,-2.1086,-2.1042,-2.1078,-2.1101,-2.1067,-2.1113,-2.1116,-2.113,-2.1186,-2.1211,-2.1191,-2.13,-2.1265,-2.1272,-2.1274,-2.1303,-2.1315,-2.1326,-2.1183,-2.1183,-2.1182,0,0,-2.1071,-2.108,-2.1124,-2.1134,-2.1149,-2.1144,-2.1155,-2.1164,-2.1165,-2.1211,-2.1185,-2.1212,-2.1259,-2.1269,-2.1281,-2.1368,-2.1347,-2.1377,-2.1426,-2.1456,-2.1466,-2.1475,-2.1504,-2.1515,-2.1383,-2.1384,-2.1384,0,-2.1116,-2.1163,-2.115,-2.1186,-2.12,-2.1171,-2.1214,-2.1225,-2.1247,-2.1257,-2.1235,-2.1292,-2.1299,-2.1356,-2.1377,-2.1388,-2.1398,-2.1375,-2.1466,-2.1475,-2.1483,-2.151,-2.1521,-2.1387,-2.1386,-2.1386,-2.1386,0,-2.1217,-2.125,-2.1284,-2.1305,-2.1323,-2.1364,-2.1355,-2.1374,-2.1362,-2.1359,-2.1405,-2.1413,-2.1438,-2.1451,-2.1439,-2.1505,-2.1492,-2.1469,-2.1429,-2.1499,-2.1524,-2.1535,-2.1392,-2.1391,-2.1389,-2.1389,0,0,-2.1336,-2.1348,-2.1361,-2.1369,-2.1382,-2.1406,-2.1445,-2.1469,-2.1485,-2.1501,-2.1531,-2.1571,-2.1548,-2.1561,-2.1551,-2.1578,-2.1644,-2.155,-2.155,-2.1566,-2.1714,-2.1731,-2.1743,-2.163,-2.1632,-2.1634,-2.1712,0,-2.142,-2.1486,-2.1473,-2.1537,-2.1566,-2.1537,-2.157,-2.1581,-2.158,-2.1603,-2.1601,-2.1629,-2.1598,-2.1606,-2.1631,-2.163,-2.1673,-2.1625,-2.1657,-2.1658,-2.1652,-2.1757,-2.1775,-2.1849,-2.1722,-2.1724,-2.1725,0,-2.1526,-2.1545,-2.1611,-2.1617,-2.1629,-2.1659,-2.1679,-2.1702,-2.1713,-2.171,-2.1724,-2.1707,-2.1744,-2.1705,-2.1754,-2.1721,-2.1734,-2.1735,-2.1737,-2.1739,-2.1695,-2.1759,-2.1872,-2.1883,-2.1741,-2.174,-2.1739,0,-2.1604,-2.1646,-2.169,-2.1698,-2.1707,-2.1728,-2.1733,-2.1742,-2.1756,-2.1774,-2.1783,-2.1804,-2.1816,-2.1833,-2.1822,-2.1795,-2.1872,-2.1832,-2.1869,-2.1869,-2.1885,-2.1884,-2.2,-2.1897,-2.1897,-2.1896,-2.1896,0,-2.1697,-2.1739,-2.1724,-2.1752,-2.1796,-2.1781,-2.1826,-2.1827,-2.1835,-2.1861,-2.1838,-2.1863,-2.1848,-2.1871,-2.1863,-2.1904,-2.191,-2.1907,-2.1904,-2.1908,-2.1908,-2.1915,-2.1909,-2.1899,-2.1899,-2.1898,-2.1898,0,-2.1791,-2.1784,-2.183,-2.1834,-2.1836,-2.1868,-2.1871,-2.1896,-2.1892,-2.1925,-2.1932,-2.1926,-2.1952,-2.1944,-2.1972,-2.1966,-2.2017,-2.2009,-2.2013,-2.2011,-2.2047,-2.2043,-2.217,-2.2185,-2.2073,-2.2074,-2.2075,0,-2.1851,-2.1881,-2.1888,-2.1904,-2.191,-2.1936,-2.195,-2.1936,-2.1951,-2.1965,-2.1988,-2.2012,-2.203,-2.2073,-2.2071,-2.2092,-2.2082,-2.2125,-2.2085,-2.2088,-2.208,-2.2078,-2.208,-2.2133,-2.2134,-2.2135,-2.2136,0,-2.1956,-2.195,-2.1972,-2.1991,-2.2009,-2.2024,-2.2037,-2.2051,-2.2037,-2.2056,-2.2082,-2.2096,-2.2124,-2.2147,-2.2166,-2.217,-2.215,-2.2149,-2.2158,-2.2162,-2.2162,-2.216,-2.2033,-2.2146,-2.2145,-2.2144,-2.2144,-2.2143,-2.2033,-2.2058,-2.2066,-2.209,-2.2098,-2.211,-2.2132,-2.2131,-2.2152,-2.2174,-2.2164,-2.2194,-2.2202,-2.2225,-2.2231,-2.2254,-2.2237,-2.2251,-2.2254,-2.2257,-2.2261,-2.216,-2.2257,-2.2257,-2.2257,-2.2257,-2.2256,0,-2.2136,-2.2139,-2.2161,-2.2179,-2.2197,-2.2177,-2.219,-2.2206,-2.2233,-2.2242,-2.226,-2.2289,-2.2311,-2.231,-2.2331,-2.2349,-2.234,-2.2354,-2.2352,-2.2352,-2.2276,-2.2265,-2.2361,-2.2361,-2.2361,-2.2361,-2.236,-2.236,-2.2191,-2.2231,-2.2226,-2.227,-2.2272,-2.2301,-2.2309,-2.232,-2.2327,-2.236,-2.2378,-2.2377,-2.2382,-2.2402,-2.2421,-2.242,-2.2428,-2.2445,-2.2441,-2.2369,-2.2358,-2.2348,-2.2338,-2.2447,-2.2447,-2.2515,-2.2516,-2.2516]},{"header":{"parameterUnit":"m.s-1","parameterCategory":1,"la1":30.2991,"la2":30.254,"lo1":-89.0895,"lo2":-89.0444,"dy":0.0017,"dx":0.0017,"nx":28,"ny":28,"refTime":"2023-09-01T09:00:00:Z","depth":0,"parameterNumber":3,"parameterNumberName":"V-component_of_WINDS"},"data":[0,0,0,0,0,0,0,0,0,0,0,0,0,0,0,0,0,0,0,0,0,0,0,0,0,0,0,0,0,0,0,0,0,0,0,0,0,0,0,0,0,0,0,0,0,0,0,0,0,0,0,0,0,0,0,0,0,0,-3.0067,-3.0067,0,-3.0059,-3.0059,-3.0059,-3.0015,-3.0014,-3.0012,-3.0011,-3.0003,-3.0004,-3.0005,0,0,0,0,0,0,0,0,0,0,0,0,0,-3.0041,-3.0042,-3.0067,-3.0067,-3.0067,-3.0059,-3.0059,-3.0059,-3.0015,-3.0014,-3.0012,-3.0011,-3.0003,-3.0004,-3.0005,0,0,0,0,0,0,0,0,0,0,0,0,0,-3.0045,-3.0042,-3.0067,-3.0044,-3.0042,-3.0059,-3.0059,-3.0059,-3.0015,-3.0013,-3.0012,-3.001,-3.0002,-3.0004,-3.0005,-3.0044,0,0,-3.0008,-3.0009,0,0,0,0,0,0,0,0,-3.0045,-3.0046,-3.0047,-3.0045,-3.0043,-3.0036,-3.0047,-3.0054,-3.0015,-3.0025,-3.0011,-3.001,-3.0015,-3.0015,-3.0017,-3.0044,-3.0043,-3.0008,-3.0009,-3.001,-3.001,0,0,0,0,0,0,0,-3.0044,-3.0046,-3.0064,-3.0047,-3.0045,-3.0033,-3.0032,-3.0048,-3.0029,-3.0024,-3.0021,-3.0021,-3.0014,-3.0016,-3.0017,-3.0043,-3.0008,-3.0009,-3.001,-3.0011,-3.0099,-3.01,0,0,0,0,0,0,-3.0048,-3.0046,-3.0064,-3.0064,-3.004,-3.0035,-3.0033,-3.004,-3.0029,-3.0026,-3.0022,-3.0019,-3.0015,-3.0016,-3.0016,-3.006,-3.001,-3.0011,-3.0011,-3.0097,-3.0099,-3.0101,0,0,0,0,0,0,-3.0047,-3.005,-3.0064,-3.0054,-3.0055,-3.0037,-3.0045,-3.0041,-3.0043,-3.0027,-3.0024,-3.0028,-3.0014,-3.0015,-3.0037,-3.0059,-3.0011,-3.0012,-3.0095,-3.0098,-3.01,-3.0148,0,0,0,0,0,0,-3.0047,-3.005,-3.0065,-3.0055,-3.0056,-3.0086,-3.0046,-3.0042,-3.0045,-3.0041,-3.0032,-3.0029,-3.0013,-3.0035,-3.0038,-3.006,-3.0013,-3.0093,-3.0096,-3.0099,-3.0144,-3.0152,-3.0158,0,0,0,0,0,-3.0046,-3.0079,-3.0066,-3.0069,-3.0074,-3.0087,-3.0088,-3.0068,-3.0047,-3.0062,-3.0052,-3.0029,-3.0056,-3.0038,-3.0041,-3.0063,-3.0091,-3.0095,-3.0099,-3.0141,-3.015,-3.0158,0,0,0,0,0,0,-3.0093,-3.0078,-3.0063,-3.0094,-3.0092,-3.008,-3.0098,-3.0079,-3.0083,-3.0079,-3.0054,-3.0052,-3.0078,-3.0073,-3.0053,-3.0099,-3.007,-3.0074,-3.0101,-3.011,-3.0117,-3.0117,-3.0014,0,0,0,0,0,-3.0107,-3.0119,-3.0105,-3.0134,-3.0134,-3.0116,-3.0121,-3.0106,-3.0103,-3.0102,-3.0093,-3.0091,-3.0098,-3.0104,-3.0111,-3.0144,-3.014,-3.016,-3.0167,-3.0173,-3.0176,-3.0191,-3.02,-3.0113,-3.0113,-3.0113,0,0,-3.0136,-3.0129,-3.0139,-3.0143,-3.014,-3.0152,-3.0116,-3.0131,-3.0139,-3.0104,-3.0124,-3.0118,-3.0113,-3.0141,-3.0152,-3.0137,-3.02,-3.0178,-3.0182,-3.0183,-3.0196,-3.0204,-3.0212,-3.0115,-3.0115,-3.0114,0,0,-3.0195,-3.0192,-3.0214,-3.0212,-3.0207,-3.0195,-3.0201,-3.0191,-3.0185,-3.0205,-3.0178,-3.0188,-3.0202,-3.0199,-3.02,-3.0256,-3.0235,-3.0259,-3.0295,-3.0309,-3.0316,-3.0322,-3.034,-3.0347,-3.0263,-3.0263,-3.0263,0,-3.0232,-3.0249,-3.0228,-3.0244,-3.0246,-3.0215,-3.0237,-3.0236,-3.0234,-3.0235,-3.0219,-3.0235,-3.023,-3.0255,-3.0268,-3.0271,-3.0275,-3.0259,-3.0317,-3.0323,-3.0328,-3.0345,-3.0352,-3.0266,-3.0265,-3.0265,-3.0265,0,-3.0293,-3.0306,-3.0325,-3.0323,-3.0327,-3.0346,-3.0327,-3.0334,-3.0318,-3.0308,-3.0327,-3.032,-3.0323,-3.0328,-3.0314,-3.0351,-3.0341,-3.0322,-3.0291,-3.0339,-3.0355,-3.0361,-3.027,-3.0269,-3.0268,-3.0267,0,0,-3.0382,-3.0367,-3.0374,-3.0372,-3.0364,-3.0373,-3.039,-3.0393,-3.0399,-3.0398,-3.0411,-3.0423,-3.0404,-3.0404,-3.0389,-3.0403,-3.0445,-3.038,-3.038,-3.0391,-3.0483,-3.0497,-3.0505,-3.0431,-3.0433,-3.0434,-3.0483,0,-3.0437,-3.0465,-3.0446,-3.0476,-3.0486,-3.0457,-3.0471,-3.0467,-3.0458,-3.0464,-3.0453,-3.0462,-3.0437,-3.0437,-3.0449,-3.0437,-3.0463,-3.0434,-3.0441,-3.0442,-3.0442,-3.0513,-3.0528,-3.0575,-3.0489,-3.049,-3.0491,0,-3.0504,-3.0506,-3.0538,-3.0526,-3.0529,-3.0543,-3.0543,-3.055,-3.0545,-3.0537,-3.0537,-3.0518,-3.0532,-3.0504,-3.0522,-3.0503,-3.0505,-3.05,-3.0501,-3.05,-3.0468,-3.0512,-3.059,-3.0596,-3.05,-3.05,-3.0499,0,-3.0563,-3.0573,-3.0593,-3.0592,-3.058,-3.0589,-3.0585,-3.0578,-3.058,-3.0581,-3.0581,-3.0584,-3.0585,-3.0586,-3.0568,-3.0549,-3.0588,-3.0559,-3.0581,-3.0581,-3.0589,-3.0589,-3.0666,-3.0594,-3.0593,-3.0593,-3.0593,0,-3.0625,-3.0645,-3.0619,-3.0631,-3.0652,-3.0629,-3.0651,-3.0643,-3.0637,-3.0646,-3.0621,-3.063,-3.0605,-3.0611,-3.0597,-3.0613,-3.0615,-3.0607,-3.0603,-3.0609,-3.0609,-3.0609,-3.0604,-3.0595,-3.0595,-3.0594,-3.0594,0,-3.0694,-3.0677,-3.0696,-3.0682,-3.0679,-3.0695,-3.0683,-3.0693,-3.0681,-3.0693,-3.0694,-3.0676,-3.0682,-3.0663,-3.0667,-3.0657,-3.0681,-3.0672,-3.0682,-3.0679,-3.0701,-3.0698,-3.078,-3.0788,-3.0712,-3.0713,-3.0713,0,-3.0734,-3.0748,-3.0736,-3.074,-3.0736,-3.0744,-3.0746,-3.0724,-3.0727,-3.0721,-3.0731,-3.0735,-3.0737,-3.0747,-3.0733,-3.0735,-3.0725,-3.0753,-3.0725,-3.073,-3.0723,-3.0722,-3.0722,-3.0759,-3.076,-3.0761,-3.0761,0,-3.0806,-3.0796,-3.08,-3.0801,-3.0804,-3.0804,-3.0802,-3.0807,-3.0783,-3.0788,-3.0793,-3.0794,-3.0797,-3.08,-3.0799,-3.0793,-3.0773,-3.077,-3.0775,-3.078,-3.0785,-3.078,-3.0696,-3.0768,-3.0768,-3.0767,-3.0767,-3.0766,-3.086,-3.087,-3.0863,-3.0867,-3.0863,-3.0862,-3.087,-3.0859,-3.0863,-3.0863,-3.085,-3.0857,-3.085,-3.0846,-3.0842,-3.0847,-3.0834,-3.0841,-3.0843,-3.0845,-3.0847,-3.0785,-3.0847,-3.0847,-3.0847,-3.0846,-3.0846,0,-3.0929,-3.0922,-3.0927,-3.0924,-3.0927,-3.0908,-3.0904,-3.0908,-3.0915,-3.091,-3.0912,-3.0917,-3.092,-3.0906,-3.0907,-3.0914,-3.0904,-3.0914,-3.0913,-3.0911,-3.086,-3.0855,-3.0922,-3.0922,-3.0922,-3.0922,-3.0922,-3.0922,-3.0965,-3.0981,-3.097,-3.0984,-3.0977,-3.0984,-3.0983,-3.0981,-3.0976,-3.0983,-3.0985,-3.0976,-3.0967,-3.0967,-3.0968,-3.0964,-3.0965,-3.0978,-3.097,-3.0922,-3.0915,-3.0908,-3.0903,-3.0978,-3.0978,-3.102,-3.1021,-3.1021]}]]